VARKAUS current weather conditions

sailwx.info

Wind from 150 at 8 knots

Air temperature 2.0° C
Visibility: greater than 1.8 NM
Dewpoint 1.0° C
Present weather: Mist.

Last reported at 2016-Feb-11 09:20 UTC.
Time now 2016-Feb-11 10:50 UTC

Location: N 62°10' E 027°52'.
View on Google Maps.

See reports from other nearby stations

  
Tides and Currents Weather Stations Pressure Air Temp Water Temp Dewpoint Dewpoint Depression Visibility Wind Speed Wind Dir Waves Ship Positions
date/time (UTC)wind fromknots sea level pressurealtimeterstation pressurevisibilityair tempwater tempwave heightnotes
2016-Feb-11 09:20 150 8 1.8 2.0 Mist.
2016-Feb-11 08:50 150 9 2.7 2.0
2016-Feb-11 08:20 150 9 5.4 2.0
2016-Feb-11 07:50 150 8 5.4 2.0 Light rain.
2016-Feb-11 07:20 150 7 4.9 2.0 Light rain.
2016-Feb-11 06:50 150 7 5.4 2.0 Light rain.
2016-Feb-11 06:20 160 7 5.4 2.0 Light rain showers.
2016-Feb-11 05:50 160 7 5.4 2.0 Light rain showers.
2016-Feb-11 05:20 160 7 5.4 2.0 Light rain.
2016-Feb-11 04:50 160 8 5.4 2.0
2016-Feb-11 04:20 150 9 5.4 2.0
2016-Feb-11 03:50 150 9 5.4 2.0
2016-Feb-11 03:20 160 9 5.4 2.0
2016-Feb-11 02:50 160 9 5.4 2.0
2016-Feb-11 02:20 160 8 5.4 2.0 Light rain showers.
2016-Feb-11 01:50 160 10 3.8 2.0
2016-Feb-11 01:20 160 9 4.3 2.0
2016-Feb-11 00:50 160 10 5.4 3.0 Light rain showers.
2016-Feb-11 00:20 170 9 5.4 3.0 Light rain showers.
2016-Feb-10 23:50 170 9 5.4 3.0
2016-Feb-10 23:20 160 10 5.4 3.0 Light rain showers.
2016-Feb-10 22:50 160 9 5.4 3.0
2016-Feb-10 22:20 150 9 5.4 3.0
2016-Feb-10 21:50 150 9 5.4 2.0 Light rain.
2016-Feb-10 21:20 150 9 5.4 3.0 Light rain.
2016-Feb-10 20:50 160 10 5.4 3.0
2016-Feb-10 20:20 150 10 5.4 3.0
2016-Feb-10 19:50 150 8 5.4 3.0
2016-Feb-10 19:20 150 9 5.4 3.0 Light rain showers.
2016-Feb-10 18:50 150 8 5.4 2.0
2016-Feb-10 18:20 150 8 5.4 2.0 Light rain.
2016-Feb-10 17:50 140 8 4.3 2.0 Light rain.
2016-Feb-10 17:20 140 9 3.2 2.0 Light rain.
2016-Feb-10 16:50 140 9 2.7 2.0
2016-Feb-10 16:20 140 10 2.7 2.0
2016-Feb-10 15:50 140 10 2.2 2.0 Light rain. Mist.
2016-Feb-10 15:20 130 11 3.2 2.0 Light rain.
2016-Feb-10 14:50 130 11 5.4 2.0 Light rain.
2016-Feb-10 14:20 120 12 4.3 2.0 Light rain.
2016-Feb-10 13:50 120 13 4.9 2.0 Light rain.
2016-Feb-10 13:20 120 8 4.9 2.0 Light rain.
2016-Feb-10 12:50 120 6 4.9 1.0 Light rain showers.
2016-Feb-10 12:20 130 7 5.4 2.0 Light rain showers.
2016-Feb-10 11:50 130 8 5.4 2.0 Light precipitation.
2016-Feb-10 11:20 130 8 5.4 2.0
2016-Feb-10 10:50 140 8 5.4 2.0
2016-Feb-10 10:20 140 6 5.4 3.0
2016-Feb-10 09:50 160 7 5.4 3.0
2016-Feb-10 09:20 160 5 5.4 3.0
2016-Feb-10 08:50 160 5 5.4 3.0
2016-Feb-10 08:20 170 8 5.4 3.0
2016-Feb-10 07:50 170 9 5.4 3.0
2016-Feb-10 07:20 180 7 5.4 3.0 Light rain.
2016-Feb-10 06:50 180 6 5.4 3.0
2016-Feb-10 06:20 180 5 5.4 3.0
2016-Feb-10 05:50 180 8 5.4 3.0
2016-Feb-10 05:20 190 7 5.4 3.0
2016-Feb-10 04:50 180 7 5.4 3.0 Light rain.
2016-Feb-10 04:20 190 5 5.4 3.0
2016-Feb-10 03:50 190 7 5.4 3.0
2016-Feb-10 03:20 190 6 5.4 3.0
2016-Feb-10 02:50 190 6 5.4 3.0
2016-Feb-10 02:20 190 6 5.4 3.0
2016-Feb-10 01:50 180 6 5.4 3.0
2016-Feb-10 01:20 190 6 2.7 3.0
2016-Feb-10 00:50 180 6 5.4 3.0 Light rain.
2016-Feb-10 00:20 180 6 5.4 3.0 Light rain.
2016-Feb-09 23:50 170 7 5.4 3.0 Light rain.
2016-Feb-09 23:20 170 6 5.4 3.0 Light rain.
2016-Feb-09 22:50 170 6 5.4 3.0 Light rain.
2016-Feb-09 22:20 170 6 5.4 3.0 Light rain.
2016-Feb-09 21:50 160 6 5.4 3.0 Light rain.
2016-Feb-09 21:20 160 7 5.4 3.0
2016-Feb-09 20:50 160 6 5.4 3.0
2016-Feb-09 20:20 160 7 5.4 2.0 Light rain showers.
2016-Feb-09 19:50 160 7 5.4 2.0
2016-Feb-09 19:20 160 7 5.4 3.0
2016-Feb-09 18:50 160 8 5.4 2.0
2016-Feb-09 18:20 160 8 5.4 2.0 Light rain.
2016-Feb-09 17:50 160 7 4.9 2.0 Light rain showers.
2016-Feb-09 17:20 160 7 5.4 2.0 Light rain showers.
2016-Feb-09 16:50 160 8 4.3 2.0